Powrót do katalogu

GNOMES-5

AktywnyPogodaSSO
NORAD 60574·PAYLOAD·🇺🇸 United States

Wystrzelony Aug 16, 2024 z Vandenberg Space Force Base

Loading…

Następne Przeloty (najbliższe 24 godziny)

TLE

ŚwieżeSource: Space-Track

Epoka: Sep 14, 2026, 12:44 UTC

1 60574U 24149DL  26257.53108337  .00002159  00000-0  17046-3 0  9992
2 60574  97.7073 335.0258 0007538 190.2041 169.9032 15.01751582113564

Śledź GNOMES-5 w czasie rzeczywistym z AllMySat

Download on the App Store